www.pogodaiklimat.ru

Погода и климат >> Архив погоды >> Россия >> Якутия >> Верхоянск


АРХИВ ПОГОДЫ в Верхоянске

Время (UTC), дата Ветер
(напр.,м/с)
 
Видим.   Явления Облачность Т
(С)
Тd
(С)
f
(%)
Тe
(С)
Тes
(С)
Комфортность P
(гПа)
Po
(гПа)
Тmin
(С)
Tmax
(С)
R
(мм)
R24
(мм)
S
(см)
21 12.10 ЮЗ 2 10 км слабый снег 10/0
[Ac As]
-11.6 -13.0 89 -16 -16 по сезону 1019.7 1001.6 -12.2 0.2 3
00 13.10 ЮЗ 2 20 км слабый снег 10/0
[Ac As]
-10.4 -12.0 88 -15 -15 по сезону 1019.9 1002.0
03 13.10 Ю 2 20 км слабый снег 10/0
[Ac As]
-9.4 -11.9 82 -14 -14 по сезону 1020.0 1002.1
06 13.10 ЮЗ 1 50 км в посл. час снег 9/6 870 м
[Sc Ac trans]
-8.3 -11.0 81 -11 -11 по сезону 1020.2 1002.4
09 13.10 ЮЗ 2 20 км 9/6 840 м
[Sc Ac trans]
-10.2 -12.7 82 -15 -15 по сезону 1021.0 1003.0 -7.5 0.0
12 13.10 З 1 20 км 9/9 870 м
[Sc]
-11.7 -13.3 88 -14 -14 по сезону 1021.7 1003.5
15 13.10 ЮЗ 2 20 км 9/9 930 м
[Sc]
-10.4 -12.1 87 -15 -15 по сезону 1021.5 1003.5
18 13.10 ЮЗ 3 20 км 9/9 800 м
[Sc]
-12.4 -14.2 86 -18 -18 по сезону 1022.3 1004.1
21 13.10 ЮЗ 2 20 км 9/9 870 м
[Sc]
-12.9 -15.2 83 -18 -18 по сезону 1022.8 1004.6 -13.0 3
00 14.10 ЮЗ 3 10 км слабый снег 10/6 900 м
[Sc As op]
-13.9 -15.9 85 -20 -20 по сезону 1023.3 1005.0 -13.9
03 14.10 ЮЗ 3 10 км слабый снег 9/9 900 м
[Sc]
-12.3 -14.6 83 -18 -18 прохладно 1023.3 1005.1
06 14.10 ЮЗ 2 20 км слабый снег 9/9 800 м
[Sc]
-10.5 -12.9 82 -15 -15 прохладно 1023.4 1005.3
09 14.10 ЮЗ 2 20 км {снег} 10/10 700 м
[Sc]
-10.6 -12.7 85 -15 -15 по сезону 1024.2 1006.1 -10.1 0.2
12 14.10 СЗ 1 20 км {снег} 10/10 540 м
[Sc]
-10.0 -11.9 86 -12 -12 по сезону 1024.8 1006.8
15 14.10 ЮЗ 3 20 км 4/4 600 м
[Sc]
-13.4 -15.4 85 -20 -20 по сезону 1025.1 1006.8
18 14.10 З 1 20 км 3/3 600 м
[Sc]
-17.8 -19.6 86 -21 -21 по сезону 1025.4 1006.8
21 14.10 З 1 20 км 6/6 600 м
[Sc]
-15.9 -17.8 85 -19 -19 по сезону 1025.1 1006.7 -17.9 3
00 15.10 З 2 20 км слабый снег 9/3 600 м
[Sc As trans]
-15.9 -17.2 90 -21 -21 по сезону 1025.2 1006.8
03 15.10 ЮЗ 3 50 км слабый снег 9/0
[Ac trans Cs]
-12.4 -11.4 100 -18 -18 по сезону 1025.0 1006.8
06 15.10 ЮЗ 2 50 км {снег} 9/0
[Ac trans Cs]
-10.1 -12.9 80 -15 -14 по сезону 1025.0 1007.0
09 15.10 З 2 10 км слабый снег 10/0
[Ac trans Cs]
-12.5 -13.8 90 -17 -17 по сезону 1025.8 1007.6 -10.0 0.3
12 15.10 З 2 10 км слабый снег 10/0
[Ac trans Cs]
-13.5 -14.9 89 -18 -18 по сезону 1026.5 1008.1
15 15.10 ЮЗ 3 10 км слабый снег 10/0
[Ac As]
-12.5 -13.9 89 -19 -19 по сезону 1026.4 1008.1
18 15.10 З 2 20 км {снег} 9/0
[Ac trans Cs]
-13.5 -14.9 89 -18 -18 по сезону 1026.5 1008.1
21 15.10 ЮЗ 3 10 км слабый снег 10/0
[Ac trans Cs]
-13.4 -14.7 90 -20 -20 по сезону 1026.5 1008.2 -14.3 0.2 3
00 16.10 ЮЗ 3 2000 м снег 10/0
[As op]
-10.3 -11.6 90 -16 -16 по сезону 1026.3 1008.2
03 16.10 ЮЗ 3 2000 м снег 10/0
[As op]
-7.8 -9.2 90 -14 -14 по сезону 1026.1 1008.1
06 16.10 ЮЗ 2 4000 м слабый снег 10/0
[As op]
-6.3 -7.9 88 -11 -11 по сезону 1025.8 1008.0
09 16.10 З 2 10 км слабый снег 10/0
[As op]
-6.3 -7.5 91 -11 -11 по сезону 1026.1 1008.3 -6.2 3
12 16.10 ЮЗ 2 10 км слабый снег 10/0
[As op]
-6.3 -7.1 94 -11 -11 тепло 1026.1 1008.3
15 16.10 ЮЗ 3 4000 м снег 10/0
[As op]
-6.4 -7.2 94 -12 -12 тепло 1026.0 1008.2
18 16.10 С 2 10 км слабый снег 10/0
[As op]
-4.3 -5.9 89 -9 -9 тепло 1026.3 1008.6
21 16.10 С 2 10 км слабый снег 10/0
[As op]
-4.9 -7.7 81 -9 -9 тепло 1027.1 1009.3 -6.4 0.4 9
00 17.10 С 2 20 км слабый снег 10/3 1000 м
[Sc Ac As]
-6.5 -9.3 80 -11 -11 тепло 1027.4 1009.5 -6.6
03 17.10 С 2 20 км слабый снег 9/8 1320 м
[Sc As op]
-5.6 -9.5 74 -10 -10 тепло 1027.4 1009.6
06 17.10 С 2 20 км слабый снег 10/8 1200 м
[Sc Ac und]
-5.8 -10.2 71 -10 -10 по сезону 1027.7 1009.9
09 17.10 С 1 20 км {снег} 10/3 1000 м
[Sc Ac und]
-6.6 -10.2 76 -9 -9 тепло 1028.1 1010.2 -4.8 0.0
12 17.10 С 2 20 км {снег} 10/0
[Ac As]
-7.2 -10.6 77 -12 -12 по сезону 1028.5 1010.6
15 17.10 штиль 0 20 км 10/6 540 м
[Sc Ac und]
-7.9 -10.5 82 -9 -9 тепло 1028.8 1010.8
18 17.10 С 1 10 км слабый снег 10/10 450 м
[Sc]
-8.4 -8.7 98 -11 -11 тепло 1028.6 1010.6
21 17.10 СВ 1 10 км слабый снег 10/10 300 м
[Sc]
-9.3 -11.3 85 -12 -12 тепло 1028.7 1010.6 -9.3 0.2 9
00 18.10 С 1 20 км слабый снег 10/0 800 м
[Ac und]
-9.8 -11.5 87 -12 -12 тепло 1029.2 1011.1 -9.8
03 18.10 С 2 20 км слабый снег 10/8 800 м
[Sc As op]
-9.5 -12.1 81 -14 -14 по сезону 1029.2 1011.1
06 18.10 В 2 50 км слабый снег 10/8 800 м
[Sc As op]
-9.9 -12.5 81 -14 -14 по сезону 1029.2 1011.1
09 18.10 В 2 20 км в посл. час снег 10/0 700 м
[Ac und]
-10.8 -13.6 80 -15 -15 по сезону 1029.4 1011.3 -9.2 0.0
12 18.10 СВ 1 10 км слабый снег 10/10 450 м
[Sc]
-12.4 -14.8 82 -15 -15 по сезону 1029.6 1011.4
15 18.10 СВ 1 10 км слабый снег 10/10 420 м
[Sc]
-12.9 -15.2 83 -15 -15 по сезону 1029.5 1011.2
18 18.10 СВ 1 10 км слабый снег 10/10 480 м
[Sc]
-13.2 -15.3 84 -16 -16 по сезону 1029.3 1011.0
21 18.10 В 1 10 км слабый снег 10/10 570 м
[Sc]
-13.4 -16.1 80 -16 -16 по сезону 1029.2 1010.9 0.2 9
00 19.10 В 1 20 км слабый снег 10/10 570 м
[Sc]
-13.3 -16.5 77 -16 -16 по сезону 1029.5 1011.2
03 19.10 З 1 20 км слабый снег 10/8 540 м
[Sc Ac und]
-12.9 -16.5 74 -15 -15 по сезону 1029.5 1011.2
06 19.10 В 2 50 км {снег} 10/10 540 м
[Sc]
-12.9 -16.2 76 -18 -18 по сезону 1029.5 1011.2
09 19.10 В 1 20 км 10/10 500 м
[Sc]
-13.6 -16.3 80 -16 -16 по сезону 1030.1 1011.7 -12.7 0.0
12 19.10 СВ 1 10 км слабый снег 10/0 540 м
[Ac und]
-13.7 -16.4 80 -16 -16 по сезону 1030.5 1012.1
15 19.10 СВ 1 10 км слабый снег 10/0 480 м
[Ac und]
-14.4 -16.4 85 -17 -17 по сезону 1031.6 1012.8

 

Местоположение метеостанции Верхоянск (Якутия, Россия): широта 67.57 долгота 133.40 высота над уровнем моря 136 м.

В архиве по умолчанию представлена погода в Верхоянске за последнюю неделю. Архивные данные за месяц целиком и за предыдущие месяцы, начиная с января 2011 года, Вы можете получить, выбрав интересующий диапазон дат из раскрывающегося списка и нажав кнопку "Ввод!".

Внимание! Время в таблицах - всемирное. Для получения местного времени необходимо прибавить поправку, которая в Верхоянске равна 10 ч.

Смотрите также архив погоды в соседних городах и на ближайших метеорологических станциях:

Погода в Батагае (Якутия, Россия) (52 км)
Погода в Екюччю (Якутия, Россия) (118 км)
Погода в Батагай-Алыте (Якутия, Россия) (129 км)
Погода в Усть-Чарках (Якутия, Россия) (162 км)
Погода в Иэме (Якутия, Россия) (274 км)
Погода в Усть-Куйге (Якутия, Россия) (284 км)
Погода в Себян-Кюеле (Якутия, Россия) (294 км)
Погода в Депутатском (Якутия, Россия) (329 км)
Погода в Юбилейной (Якутия, Россия) (373 км)
Погода в Джарджане (Якутия, Россия) (409 км)

Пояснения к столбцам:

Ветер - указаны скорость ветра в м/с - средняя за 10 мин, порывы в срок и между сроками (в фигурных скобках) и направление, откуда дует ветер: С - северный, СВ - северо-восточный, В - восточный, ЮВ - юго-восточный, Ю - южный, ЮЗ - юго-западный, З - западный, СЗ - северо-западный.
Видимость - горизонтальная дальность видимости в метрах или километрах. При видимости от 1 до 10 км при отсутствии осадков обычно наблюдается дымка, при ухудшении видимости до 1 км и менее - туман. В сухую погоду видимость может ухудшаться дымом, пылью или мглою.
Явления - указаны атмосферные явления, наблюдавшиеся в срок или в последний час перед сроком; фигурными скобками обозначены явления, наблюдавшиеся между сроками (за 1-3 часа до срока); квадратными скобками обозначены град или гололедные отложения с указанием их диаметра в мм.
Облачность - указаны через наклонную черту общая и нижняя облачность в баллах и высота нижней границы облаков в метрах; квадратными скобками обозначены формы облаков: Ci - перистые, Cs - перисто-слоистые, Cc - перисто-кучевые, Ac - высококучевые, As - высокослоистые, Sc - слоисто-кучевые, Ns - слоисто-дождевые, Cu - кучевые, Cb - кучево-дождевые. Подробнее классификацию облаков см. в Атласе облаков (PDF).
T - Температура воздуха - температура, измеренная на высоте 2 м над землей.
Td - Температура точки росы - температура, при понижении до которой содержащийся в воздухе водяной пар достигнет насыщения.
f - Относительная влажность воздуха - влажноcть воздуха, измеренная на высоте 2 м над землей.
Te - Эффективная температура - температура, которую ощущает одетый по сезону человек в тени. Характеристика душности погоды. При расчете учитывается влияние влажности воздуха и скорости ветра на теплоощущения человека.
Tes - Эффективная температура на солнце - температура, которую ощущает человек, с поправкой на солнечный нагрев. Характеристика знойности погоды. Зависит от высоты солнца над горизонтом, облачности и скорости ветра. Ночью, в пасмурную погоду, а также при ветре 12 м/с и более поправка равна нулю.
P - Атмосферное давление - приведенное к уровню моря атмосферное давление.
Po - Атмосферное давление - измеренное на уровне метеостанции атмосферное давление.
Tmin - Минимальная температура - минимум температуры воздуха на высоте 2 м над землей.
Tmax - Максимальная температура - максимум температуры воздуха на высоте 2 м над землей.
R - Количество осадков - Количество выпавших осадков за период времени, мм. При наведении курсора мыши на число - период времени, за который выпало указанное количество осадков.
R24 - Количество осадков - Количество выпавших осадков за 24 часа, мм.
S - Снежный покров - Высота снежного покрова, см. При наведении курсора мыши на число - состояние снежного покрова и степень покрытия местности в баллах.